Location: Oak Glen
(34.0495°N, 116.9470°E)
Time: 10:07:44
(UTC-07:00)

OTV 5 (USA 277) - Pass Details

Date: 09 October 2017
Orbit: 404 x 417 km, 43.0° (Epoch: 07 September)

Event Time Altitude Azimuth Distance (km) Brightness Sun altitude
Rises 03:34:59 0° 229° (SW) 2,338 ? -10.9°
Reaches altitude 10° 03:37:06 10° 224° (SW) 1,478 ? -11.4°
Maximum altitude 03:40:22 53° 147° (SSE) 512 ? -12.1°
Enters shadow 03:42:22 21° 76° (ENE) 990 ? -12.5°
